Location: Los Gatos B&B
(42.6926°N, 77.0646°W)
Time: 12:04:48
(UTC-04:00)

Amateur Radio Satellites - All Passes

Search period start: 29 August 2014 11:34
Search period end: 30 August 2014 11:34
Location: Los Gatos B&B, 42.6926°N, 77.0646°W

Satellite Date Start Highest point End Downlink Frequencies (MHz)
Time Altitude Azimuth
SO-50 29 Aug 11:48:34 11:51:55 19° 39° (NE) 11:55:17 436.795 FM
UKube-1 29 Aug 11:51:16 11:54:26 20° 295° (WNW) 11:57:36 145.840 MHz, 145.915 MHz
Oscar 11 29 Aug 11:58:51 12:02:22 24° 293° (WNW) 12:05:53 145.825 FM, Beacon 2401.500 USB
RS-15 29 Aug 12:05:59 12:14:44 26° 341° (NNW) 12:23:33 29.354 - 29.394 USB, Beacon 29.352 USB
FUNcube-1 29 Aug 12:19:34 12:23:41 36° 290° (WNW) 12:27:52 145.950 - 145.970 MHz USB
MaSat-1 29 Aug 12:37:23 12:38:05 10° 97° (E) 12:38:47 437.345 MHz
Oscar 19 29 Aug 12:45:04 12:49:02 23° 63° (ENE) 12:53:01 437.125 CW, 437.150 USB
JAS-1B 29 Aug 12:59:23 13:07:02 28° 58° (ENE) 13:14:03 435.800 - 435.900 CW/SSB
HO-68 29 Aug 13:00:48 13:02:44 11° 314° (NW) 13:04:39 435.675 MHz FM
ISS 29 Aug 13:02:17 13:05:20 33° 337° (NNW) 13:08:24 145.800 FM
ITAMSAT 1 29 Aug 13:14:19 13:17:56 20° 62° (ENE) 13:21:32 435.822 SSB
Oscar 16 29 Aug 13:18:30 13:23:24 46° 70° (ENE) 13:28:21 437.025 USB, Beacon 2401.1428
Uribyol 2 29 Aug 13:24:04 13:28:11 25° 64° (ENE) 13:32:19 436.500 FM
AO-Echo 29 Aug 13:24:46 13:28:47 25° 66° (ENE) 13:32:43 ?
SO-50 29 Aug 13:28:14 13:33:02 79° 238° (WSW) 13:37:53 436.795 FM
AO-27 29 Aug 13:41:42 13:46:19 34° 67° (ENE) 13:50:56 436.795 MHz FM
UOSAT-12 29 Aug 13:56:48 14:00:39 24° 42° (NE) 14:04:27 437.025 FM, 437.400 FM
Gurwin Techsat 1B 29 Aug 14:01:37 14:05:47 24° 64° (ENE) 14:09:58 435.225 FM
MaSat-1 29 Aug 14:09:17 14:14:10 83° 115° (ESE) 14:19:23 437.345 MHz
Oscar 19 29 Aug 14:23:05 14:28:03 48° 261° (W) 14:33:04 437.125 CW, 437.150 USB
RS-15 29 Aug 14:23:25 14:32:05 26° 17° (NNE) 14:40:55 29.354 - 29.394 USB, Beacon 29.352 USB
ISS 29 Aug 14:40:28 14:42:48 17° 357° (N) 14:45:08 145.800 FM
JAS-1B 29 Aug 14:46:51 14:56:45 82° 256° (WSW) 15:05:42 435.800 - 435.900 CW/SSB
ITAMSAT 1 29 Aug 14:51:54 14:56:59 58° 259° (W) 15:02:05 435.822 SSB
TMSAT-1 29 Aug 14:53:02 14:58:06 49° 70° (ENE) 15:03:12 436.925 FM
AO-7 29 Aug 14:55:02 15:01:40 28° 54° (NE) 15:08:18 29.400 - 29.500 MHz
Oscar 16 29 Aug 14:58:59 15:02:58 22° 267° (W) 15:07:00 437.025 USB, Beacon 2401.1428
Uribyol 2 29 Aug 15:02:31 15:07:24 43° 261° (W) 15:12:20 436.500 FM
AO-Echo 29 Aug 15:02:35 15:07:21 41° 262° (W) 15:12:00 ?
AO-27 29 Aug 15:21:16 15:25:48 31° 264° (W) 15:30:23 436.795 MHz FM
UOSAT-12 29 Aug 15:36:30 15:41:06 53° 241° (WSW) 15:45:38 437.025 FM, 437.400 FM
Gurwin Techsat 1B 29 Aug 15:40:22 15:45:27 47° 261° (W) 15:50:35 435.225 FM
MaSat-1 29 Aug 15:48:35 15:51:55 17° 314° (NW) 15:55:19 437.345 MHz
Uosat F 29 Aug 15:51:48 15:56:19 35° 68° (ENE) 16:00:50 435.120 FM
ISS 29 Aug 16:17:32 16:20:22 25° 18° (NNE) 16:23:12 145.800 FM
TMSAT-1 29 Aug 16:34:17 16:38:17 22° 267° (W) 16:42:18 436.925 FM
RS-15 29 Aug 16:36:35 16:47:28 58° 48° (NE) 16:58:43 29.354 - 29.394 USB, Beacon 29.352 USB
JAS-1B 29 Aug 16:41:41 16:48:08 20° 272° (W) 16:54:17 435.800 - 435.900 CW/SSB
AO-7 29 Aug 16:45:22 16:53:42 76° 254° (WSW) 17:02:04 29.400 - 29.500 MHz
JAS-2 29 Aug 16:52:47 16:56:41 18° 62° (ENE) 17:00:22 435.800 - 435.900 CW/SSB, 435.910 FM
Oscar 10/S400 29 Aug 16:55:09 17:10:04 25° 144° (SE) 17:28:10 145.825 - 145.975 CW/USB, Beacon 145.810 USB
OPAL 29 Aug 17:07:30 17:12:13 33° 99° (E) 17:16:53 ?
Sapphire 29 Aug 17:08:27 17:13:16 34° 110° (ESE) 17:18:07 437.095 MHz 1200 baud AX-25 AFSK
Uosat F 29 Aug 17:30:50 17:35:07 28° 264° (W) 17:39:26 435.120 FM
PCSat 29 Aug 17:37:25 17:42:45 65° 116° (ESE) 17:48:08 145.825 MHz
Hamsat 29 Aug 17:53:38 17:57:48 50° 73° (ENE) 18:02:01 145.90 MHz
ISS 29 Aug 17:54:02 17:57:22 73° 216° (SW) 18:00:41 145.800 FM
JAS-2 29 Aug 18:35:07 18:41:22 70° 257° (WSW) 18:46:57 435.800 - 435.900 CW/SSB, 435.910 FM
AO-7 29 Aug 18:43:41 18:47:47 14° 273° (W) 18:51:55 29.400 - 29.500 MHz
OPAL 29 Aug 18:46:24 18:51:02 33° 296° (WNW) 18:55:39 ?
RS-15 29 Aug 18:49:20 18:59:35 45° 250° (WSW) 19:10:14 29.354 - 29.394 USB, Beacon 29.352 USB
STRAND 1 29 Aug 18:50:04 18:53:14 16° 91° (E) 18:56:22 ?
Sapphire 29 Aug 18:51:38 18:56:38 37° 309° (NW) 19:01:40 437.095 MHz 1200 baud AX-25 AFSK
PCSat 29 Aug 19:22:24 19:26:39 23° 316° (NW) 19:30:54 145.825 MHz
Hamsat 29 Aug 19:31:34 19:34:04 15° 270° (W) 19:36:35 145.90 MHz
SO-67 29 Aug 19:40:24 19:43:50 64° 259° (W) 19:47:18 435.3500 MHz FM
HO-68 29 Aug 19:52:36 19:58:16 26° 58° (ENE) 20:03:56 435.675 MHz FM
STRAND 1 29 Aug 20:27:48 20:32:50 62° 288° (WNW) 20:37:51 ?
UKube-1 29 Aug 21:10:39 21:14:40 38° 70° (ENE) 21:18:43 145.840 MHz, 145.915 MHz
Oscar 11 29 Aug 21:18:20 21:22:03 28° 68° (ENE) 21:25:47 145.825 FM, Beacon 2401.500 USB
HO-68 29 Aug 21:38:19 21:45:24 67° 257° (WSW) 21:52:32 435.675 MHz FM
FUNcube-1 29 Aug 21:41:37 21:44:37 20° 65° (ENE) 21:47:40 145.950 - 145.970 MHz USB
Saudisat 1A 29 Aug 22:10:34 22:12:27 13° 108° (ESE) 22:14:20 436.775 MHz
MaSat-1 29 Aug 22:26:55 22:30:49 25° 50° (NE) 22:34:20 437.345 MHz
KITSAT 1 29 Aug 22:42:08 22:47:31 20° 102° (ESE) 22:52:54 435.175 FM
UKube-1 29 Aug 22:47:50 22:51:01 20° 266° (W) 22:54:12 145.840 MHz, 145.915 MHz
Oscar 11 29 Aug 22:54:31 22:58:11 27° 265° (W) 23:01:54 145.825 FM, Beacon 2401.500 USB
FUNcube-1 29 Aug 23:16:52 23:20:45 38° 263° (W) 23:24:43 145.950 - 145.970 MHz USB
HO-68 29 Aug 23:33:34 23:34:23 10° 275° (W) 23:35:12 435.675 MHz FM
Saudisat 1A 29 Aug 23:47:02 23:51:26 72° 305° (NW) 23:55:52 436.775 MHz
MaSat-1 30 Aug 00:03:46 00:07:59 37° 252° (WSW) 00:11:40 437.345 MHz
KITSAT 1 30 Aug 00:33:45 00:41:51 88° 301° (WNW) 00:50:00 435.175 FM
PCSat 30 Aug 00:42:55 00:45:27 13° 35° (NE) 00:47:58 145.825 MHz
Saudisat 1A 30 Aug 01:29:45 01:31:49 13° 325° (NW) 01:33:53 436.775 MHz
Oscar 16 30 Aug 01:30:47 01:33:47 15° 90° (E) 01:36:46 437.025 USB, Beacon 2401.1428
Sapphire 30 Aug 01:55:14 02:00:12 35° 50° (NE) 02:05:08 437.095 MHz 1200 baud AX-25 AFSK
AO-27 30 Aug 01:56:41 01:57:39 11° 88° (E) 01:58:37 436.795 MHz FM
PCSat 30 Aug 02:24:38 02:30:01 61° 57° (ENE) 02:35:22 145.825 MHz
KITSAT 1 30 Aug 02:31:47 02:38:23 27° 324° (NW) 02:45:01 435.175 FM
Oscar 19 30 Aug 02:33:42 02:38:51 57° 101° (E) 02:43:56 437.125 CW, 437.150 USB
JAS-1B 30 Aug 02:34:48 02:40:16 26° 90° (E) 02:45:09 435.800 - 435.900 CW/SSB
ITAMSAT 1 30 Aug 03:03:58 03:08:58 48° 100° (E) 03:13:58 435.822 SSB
Oscar 16 30 Aug 03:08:26 03:13:37 68° 287° (WNW) 03:18:46 437.025 USB, Beacon 2401.1428
AO-Echo 30 Aug 03:08:42 03:13:21 59° 101° (E) 03:17:59 ?
TMSAT-1 30 Aug 03:09:03 03:12:40 18° 91° (E) 03:16:16 436.925 FM
Uribyol 2 30 Aug 03:14:05 03:19:15 63° 102° (ESE) 03:24:24 436.500 FM
AO-27 30 Aug 03:32:39 03:37:52 88° 105° (ESE) 03:43:04 436.795 MHz FM
Sapphire 30 Aug 03:38:40 03:43:38 38° 249° (WSW) 03:48:35 437.095 MHz 1200 baud AX-25 AFSK
SO-50 30 Aug 03:44:35 03:48:22 27° 114° (ESE) 03:52:14 436.795 FM
Gurwin Techsat 1B 30 Aug 03:55:31 04:00:49 67° 102° (ESE) 04:06:05 435.225 FM
PCSat 30 Aug 04:09:07 04:12:56 20° 254° (WSW) 04:16:45 145.825 MHz
Oscar 19 30 Aug 04:14:04 04:17:44 20° 298° (WNW) 04:21:24 437.125 CW, 437.150 USB
OPAL 30 Aug 04:23:02 04:28:01 64° 70° (ENE) 04:33:07 ?
JAS-1B 30 Aug 04:24:44 04:31:24 50° 293° (WNW) 04:37:09 435.800 - 435.900 CW/SSB
KITSAT 1 30 Aug 04:33:47 04:37:14 13° 353° (N) 04:40:42 435.175 FM
ITAMSAT 1 30 Aug 04:44:09 04:48:09 23° 297° (WNW) 04:52:09 435.822 SSB
AO-7 30 Aug 04:46:29 04:53:57 36° 97° (E) 05:01:21 29.400 - 29.500 MHz
TMSAT-1 30 Aug 04:47:46 04:52:58 58° 288° (WNW) 04:58:08 436.925 FM
AO-Echo 30 Aug 04:48:49 04:51:40 16° 298° (WNW) 04:54:31 ?
Uribyol 2 30 Aug 04:54:47 04:58:13 18° 299° (WNW) 05:01:40 436.500 FM
AO-27 30 Aug 05:14:17 05:16:38 13° 302° (WNW) 05:18:59 436.795 MHz FM
SO-50 30 Aug 05:24:37 05:28:47 36° 312° (NW) 05:33:04 436.795 FM
Gurwin Techsat 1B 30 Aug 05:36:47 05:40:14 18° 299° (WNW) 05:43:42 435.225 FM
Uosat F 30 Aug 05:36:47 05:41:49 83° 104° (ESE) 05:46:49 435.120 FM
JAS-2 30 Aug 05:45:40 05:47:12 11° 89° (E) 05:48:44 435.800 - 435.900 CW/SSB, 435.910 FM
UOSAT-12 30 Aug 05:48:17 05:52:33 39° 116° (ESE) 05:56:55 437.025 FM, 437.400 FM
Oscar 10/S400 30 Aug 06:01:33 06:52:23 16° 255° (WSW) 08:20:18 145.825 - 145.975 CW/USB, Beacon 145.810 USB
OPAL 30 Aug 06:04:19 06:07:21 16° 267° (W) 06:10:26 ?
STRAND 1 30 Aug 06:06:29 06:10:41 27° 65° (ENE) 06:14:54 ?
KITSAT 1 30 Aug 06:31:25 06:36:41 18° 25° (NNE) 06:41:55 435.175 FM
Saudisat 1A 30 Aug 06:34:30 06:37:28 17° 39° (NE) 06:40:26 436.775 MHz
AO-7 30 Aug 06:39:00 06:46:58 54° 296° (WNW) 06:54:55 29.400 - 29.500 MHz
RS-15 30 Aug 07:03:08 07:12:08 30° 104° (ESE) 07:20:59 29.354 - 29.394 USB, Beacon 29.352 USB
Hamsat 30 Aug 07:14:22 07:18:45 86° 283° (WNW) 07:23:04 145.90 MHz
Uosat F 30 Aug 07:17:34 07:19:55 13° 301° (WNW) 07:22:16 435.120 FM
JAS-2 30 Aug 07:27:41 07:32:56 85° 285° (WNW) 07:38:32 435.800 - 435.900 CW/SSB, 435.910 FM
UOSAT-12 30 Aug 07:28:43 07:32:47 29° 315° (NW) 07:36:56 437.025 FM, 437.400 FM
STRAND 1 30 Aug 07:44:56 07:49:41 39° 262° (W) 07:54:28 ?
Saudisat 1A 30 Aug 08:13:08 08:17:33 74° 239° (WSW) 08:21:56 436.775 MHz
KITSAT 1 30 Aug 08:26:20 08:34:13 52° 50° (NE) 08:42:02 435.175 FM
AO-7 30 Aug 08:34:29 08:37:55 13° 318° (NW) 08:41:21 29.400 - 29.500 MHz
SO-67 30 Aug 08:36:22 08:39:47 57° 285° (WNW) 08:43:11 435.3500 MHz FM
HO-68 30 Aug 09:06:03 09:11:31 23° 92° (E) 09:16:57 435.675 MHz FM
RS-15 30 Aug 09:12:20 09:23:24 76° 306° (NW) 09:34:23 29.354 - 29.394 USB, Beacon 29.352 USB
JAS-2 30 Aug 09:15:40 09:17:19 12° 302° (WNW) 09:19:01 435.800 - 435.900 CW/SSB, 435.910 FM
KITSAT 1 30 Aug 10:22:05 10:29:24 39° 251° (WSW) 10:36:40 435.175 FM
UKube-1 30 Aug 10:33:52 10:38:12 65° 102° (ESE) 10:42:31 145.840 MHz, 145.915 MHz
ISS 30 Aug 10:37:27 10:40:11 24° 135° (SE) 10:42:56 145.800 FM
Oscar 11 30 Aug 10:40:36 10:44:53 51° 100° (E) 10:49:08 145.825 FM, Beacon 2401.500 USB
HO-68 30 Aug 10:52:40 10:59:46 69° 290° (WNW) 11:06:51 435.675 MHz FM
FUNcube-1 30 Aug 11:04:42 11:08:56 38° 98° (E) 11:13:12 145.950 - 145.970 MHz USB
